GW2455 Weather Reports


Display with metric or nautical units.
time (UTC)temp
F
wind
direction
speed
MPH
gust
MPH
rain 1hr
in
rain 24hr
in
rain mn
in
humidity
%
barometer
mb
20260902141214 77 206 5.0 6.0 0.00 0.00 0.00 90 1024.9
20260902141027 77 187 4.0 6.0 0.00 0.00 0.00 91 1024.9
20260902140523 77 171 5.0 6.0 0.00 0.00 0.00 91 1024.9
20260902135707 77 229 4.0 6.0 0.00 0.00 0.00 91 1024.9
20260902135203 76 199 4.0 7.0 0.00 0.00 0.00 92 1024.9
20260902134703 76 198 5.0 7.0 0.00 0.00 0.00 92 1024.9
20260902134202 76 185 6.0 7.0 0.00 0.00 0.00 91 1025.0
20260902133704 76 189 5.0 6.0 0.00 0.00 0.00 91 1025.0
20260902133158 76 199 5.0 6.0 0.00 0.00 0.00 90 1025.0
20260902132657 77 196 5.0 6.0 0.00 0.00 0.00 91 1025.0
20260902132156 77 206 5.0 6.0 0.00 0.00 0.00 91 1025.0
20260902132010 76 195 5.0 6.0 0.00 0.00 0.00 91 1025.1
20260902131152 76 191 5.0 7.0 0.00 0.00 0.00 91 1025.1
20260902130646 76 189 6.0 7.0 0.00 0.00 0.00 91 1025.0
20260902130145 76 196 6.0 6.0 0.00 0.00 0.00 91 1025.2
20260902125642 76 201 5.0 6.0 0.00 0.00 0.00 91 1025.2
20260902125454 76 192 5.0 6.0 0.00 0.00 0.00 92 1025.2
20260902124637 76 188 5.0 6.0 0.00 0.00 0.00 91 1025.2
20260902124138 76 199 5.0 6.0 0.00 0.00 0.00 92 1025.2
20260902123635 76 174 5.0 6.0 0.00 0.00 0.00 92 1025.2
20260902123442 76 201 5.0 6.0 0.00 0.00 0.00 91 1025.3
20260902122732 76 198 5.0 6.0 0.00 0.00 0.00 90 1025.3
20260902121956 77 174 4.0 7.0 0.00 0.00 0.00 90 1025.4
20260902121132 76 184 5.0 7.0 0.00 0.00 0.00 91 1025.3
20260902120945 76 174 5.0 7.0 0.00 0.00 0.00 91 1025.3
20260902120130 76 167 4.0 6.0 0.00 0.00 0.00 92 1025.3
20260902115634 76 163 5.0 6.0 0.00 0.00 0.00 92 1025.4
20260902115127 76 181 4.0 6.0 0.00 0.00 0.00 92 1025.3
20260902114625 76 164 6.0 6.0 0.00 0.00 0.00 91 1025.3
20260902114123 76 161 5.0 6.0 0.00 0.00 0.00 91 1025.3
20260902113623 76 189 4.0 6.0 0.00 0.00 0.00 92 1025.3
20260902113435 76 192 5.0 6.0 0.00 0.00 0.00 92 1025.3
20260902112620 76 177 5.0 6.0 0.00 0.00 0.00 92 1025.3
20260902112118 76 157 4.0 5.0 0.00 0.00 0.00 92 1025.3
20260902111927 76 165 3.0 4.0 0.00 0.00 0.00 92 1025.2
20260902111115 76 168 4.0 4.0 0.00 0.00 0.00 93 1025.1
20260902110609 75 168 3.0 4.0 0.00 0.00 0.00 93 1025.2
20260902110114 75 160 3.0 5.0 0.00 0.00 0.00 94 1025.2
20260902105602 75 144 3.0 5.0 0.00 0.00 0.00 93 1025.2
20260902105103 75 141 4.0 5.0 0.00 0.00 0.00 93 1025.2
20260902104602 75 137 4.0 5.0 0.00 0.00 0.00 93 1025.1
20260902104104 75 147 3.0 5.0 0.00 0.00 0.00 93 1025.0
20260902103603 75 137 2.0 6.0 0.00 0.00 0.00 93 1025.0
20260902103103 75 137 3.0 6.0 0.00 0.00 0.00 93 1024.9
20260902102604 75 132 4.0 4.0 0.00 0.00 0.00 92 1025.0
20260902102103 75 257 2.0 3.0 0.00 0.00 0.00 92 1025.0
20260902101601 75 257 0.0 0.0 0.00 0.00 0.00 92 1024.8
20260902101057 75 257 0.0 0.0 0.00 0.00 0.00 92 1024.9
20260902100907 75 257 0.0 2.0 0.00 0.00 0.00 92 1024.9
20260902100054 75 257 0.0 3.0 0.00 0.00 0.00 92 1024.9
20260902095554 75 257 1.0 4.0 0.00 0.00 0.00 92 1024.9
20260902095049 75 257 2.0 4.0 0.00 0.01 0.00 93 1025.0
20260902094545 74 257 3.0 4.0 0.00 0.01 0.00 92 1025.0
20260902094046 74 257 3.0 4.0 0.00 0.01 0.00 92 1025.1
20260902093857 75 267 3.0 4.0 0.00 0.01 0.00 91 1025.0
20260902093409 75 267 3.0 4.0 0.00 0.01 0.00 92 1024.9
20260902092907 75 8 0.0 0.0 0.00 0.01 0.00 91 1024.8
20260902092036 75 8 0.0 0.0 0.00 0.01 0.00 91 1024.8
20260902091534 75 7 0.0 2.0 0.00 0.01 0.00 91 1024.7
20260902091036 75 8 0.0 3.0 0.00 0.01 0.00 91 1024.8
20260902090535 74 8 2.0 3.0 0.00 0.01 0.00 91 1024.8
20260902090035 75 8 0.0 2.0 0.00 0.01 0.00 92 1024.7
20260902085533 75 7 1.0 3.0 0.00 0.01 0.00 92 1024.6
20260902085345 74 8 0.0 3.0 0.00 0.01 0.00 92 1024.6
20260902084533 74 7 2.0 3.0 0.00 0.01 0.00 93 1024.6
20260902084031 74 8 2.0 4.0 0.00 0.01 0.00 94 1024.5
20260902083532 73 8 3.0 5.0 0.00 0.01 0.00 94 1024.5
20260902083030 73 13 4.0 5.0 0.00 0.01 0.00 95 1024.4
20260902082524 72 3 3.0 4.0 0.00 0.01 0.00 95 1024.3
20260902082024 71 3 2.0 4.0 0.00 0.01 0.00 95 1024.4
20260902081519 71 3 2.0 4.0 0.00 0.01 0.00 94 1024.4
20260902081017 71 3 3.0 4.0 0.00 0.01 0.00 94 1024.4
20260902080515 71 3 2.0 3.0 0.00 0.01 0.00 94 1024.4
20260902080011 71 3 0.0 3.0 0.00 0.01 0.00 94 1024.4
20260902075509 71 3 0.0 2.0 0.00 0.01 0.00 95 1024.4
20260902075008 71 3 0.0 2.0 0.00 0.01 0.00 94 1024.4
20260902074847 71 3 1.0 2.0 0.00 0.01 0.00 94 1024.3
20260902074100 71 3 2.0 5.0 0.00 0.01 0.00 95 1024.2
20260902073005 71 3 4.0 5.0 0.00 0.01 0.00 94 1024.2
20260902072507 70 3 3.0 4.0 0.00 0.01 0.00 94 1024.1
20260902072004 70 3 3.0 4.0 0.00 0.01 0.00 94 1024.1
20260902071503 70 3 4.0 4.0 0.00 0.01 0.00 94 1024.1
20260902071002 71 3 0.0 0.0 0.00 0.01 0.00 94 1024.0
20260902070458 70 4 0.0 0.0 0.00 0.01 0.00 94 1023.9
20260902065955 70 3 0.0 0.0 0.00 0.01 0.00 94 1023.9
20260902065453 70 4 0.0 0.0 0.00 0.01 0.00 94 1024.0
20260902064954 70 3 0.0 0.0 0.00 0.01 0.00 94 1023.9
20260902064807 70 3 0.0 0.0 0.00 0.01 0.00 93 1024.0
20260902063948 71 3 0.0 0.0 0.00 0.01 0.00 94 1024.0
20260902063445 71 3 0.0 0.0 0.00 0.01 0.00 94 1023.9
20260902062942 71 3 0.0 0.0 0.00 0.01 0.00 94 1023.8
20260902062443 70 4 0.0 0.0 0.00 0.01 0.00 93 1023.8
20260902062256 71 3 0.0 0.0 0.00 0.01 0.00 93 1023.8
20260902061439 71 3 0.0 0.0 0.00 0.01 0.00 93 1023.8
20260902060935 71 3 0.0 1.0 0.00 0.01 0.00 93 1023.8
20260902060436 71 3 1.0 2.0 0.00 0.01 0.00 94 1023.8
20260902060238 71 3 0.0 4.0 0.00 0.01 0.00 93 1023.8
20260902055431 70 3 2.0 5.0 0.00 0.01 0.00 93 1023.8
20260902054934 71 3 3.0 5.0 0.00 0.01 0.00 93 1023.8
20260902054433 71 30 3.0 4.0 0.00 0.01 0.00 93 1023.9
20260902054032 71 30 3.0 4.0 0.00 0.01 0.00 92 1023.9
20260902053248 71 30 3.0 4.0 0.00 0.01 0.00 93 1023.9
20260902052431 71 30 4.0 6.0 0.00 0.01 0.00 93 1023.8
20260902052407 71 28 4.0 6.0 0.00 0.01 0.00 93 1023.8
20260902050931 71 30 4.0 6.0 0.00 0.01 0.00 93 1023.8
20260902050433 71 27 5.0 6.0 0.00 0.01 0.00 93 1023.8
20260902045931 71 21 4.0 5.0 0.00 0.01 0.00 93 1023.7
20260902045431 71 21 4.0 6.0 0.00 0.01 0.00 94 1023.7
20260902044929 71 14 5.0 6.0 0.00 0.02 0.00 94 1023.7
20260902044424 71 15 4.0 5.0 0.00 0.06 0.00 94 1023.7
20260902043926 71 8 3.0 4.0 0.00 0.06 0.00 94 1023.7
20260902043422 71 8 4.0 4.0 0.00 0.06 0.00 94 1023.8
20260902043231 71 10 2.0 5.0 0.00 0.06 0.00 94 1023.8
20260902042416 71 8 4.0 5.0 0.00 0.06 0.00 95 1023.9
20260902041916 71 8 4.0 5.0 0.00 0.06 0.00 95 1023.8
20260902041415 71 8 4.0 5.0 0.00 0.06 0.00 95 1023.8
20260902041224 71 8 4.0 5.0 0.00 0.06 0.00 95 1023.8
20260902040409 71 357 4.0 4.0 0.00 0.06 0.00 95 1023.7
20260902035907 71 357 3.0 4.0 0.00 0.06 0.00 95 1023.8
20260902035405 71 357 3.0 3.0 0.00 0.06 0.00 95 1023.9
20260902035006 71 357 2.0 3.0 0.00 0.06 0.00 95 1023.8
20260902033903 71 357 2.0 4.0 0.00 0.06 0.00 95 1023.9
20260902033522 71 356 3.0 4.0 0.00 0.06 0.00 95 1023.9
20260902032402 71 356 2.0 4.0 0.00 0.06 0.00 95 1023.8
20260902031904 71 357 2.0 4.0 0.00 0.06 0.00 95 1023.9
20260902031403 71 356 3.0 4.0 0.00 0.06 0.00 95 1023.9
20260902030904 71 357 3.0 5.0 0.00 0.06 0.00 95 1023.9
20260902030404 71 356 4.0 5.0 0.00 0.06 0.00 95 1024.0
20260902025903 71 20 2.0 4.0 0.00 0.06 0.00 95 1024.0
20260902025358 71 20 3.0 3.0 0.00 0.06 0.00 94 1023.9
20260902024859 71 20 2.0 4.0 0.00 0.06 0.00 94 1023.8
20260902024356 71 20 3.0 5.0 0.00 0.06 0.00 94 1023.9
20260902023852 71 20 4.0 5.0 0.00 0.06 0.00 94 1024.1
20260902023722 71 20 4.0 5.0 0.00 0.06 0.00 94 1024.1
20260902022848 71 20 4.0 5.0 0.00 0.06 0.00 94 1024.1
20260902022344 71 20 4.0 5.0 0.00 0.06 0.00 94 1024.2
20260902021843 71 20 3.0 4.0 0.00 0.06 0.00 94 1024.1
20260902021654 71 20 3.0 4.0 0.00 0.06 0.00 94 1024.2
20260902021156 71 20 1.0 3.0 0.00 0.06 0.00 94 1024.2
20260902020347 71 20 2.0 4.0 0.00 0.06 0.00 94 1024.2
20260902015834 72 20 3.0 5.0 0.00 0.06 0.00 94 1024.2
20260902015335 72 20 4.0 5.0 0.00 0.06 0.00 95 1024.3
20260902014832 72 20 4.0 5.0 0.00 0.06 0.00 95 1024.4
20260902014332 72 20 3.0 4.0 0.00 0.06 0.00 95 1024.5
20260902013831 72 20 3.0 5.0 0.00 0.06 0.00 95 1024.5
20260902013331 72 20 4.0 5.0 0.00 0.06 0.00 95 1024.5
20260902013142 72 340 1.0 3.0 0.00 0.06 0.00 95 1024.6
20260902012333 72 340 1.0 4.0 0.00 0.06 0.00 95 1024.6
20260902011930 72 342 3.0 5.0 0.00 0.06 0.00 95 1024.6
20260902010831 72 340 4.0 5.0 0.00 0.06 0.00 95 1024.7
20260902010332 72 340 4.0 5.0 0.00 0.06 0.00 94 1024.7
20260902010245 72 342 4.0 4.0 0.00 0.06 0.00 94 1024.7
20260902005330 72 340 0.0 0.0 0.00 0.06 0.00 94 1024.7
20260902004828 73 342 0.0 0.0 0.00 0.06 0.00 94 1024.7
20260902004326 73 340 0.0 0.0 0.00 0.06 0.00 95 1024.8
20260902003824 73 342 0.0 0.0 0.00 0.06 0.00 95 1024.8
20260902003326 73 340 0.0 0.0 0.00 0.06 0.00 95 1024.7
20260902002825 73 340 0.0 0.0 0.00 0.06 0.00 95 1024.8
20260902002323 73 340 0.0 0.0 0.00 0.06 0.00 95 1024.7
20260902001822 73 340 0.0 0.0 0.00 0.06 0.00 95 1024.7
20260902001321 73 342 0.0 0.0 0.00 0.06 0.00 95 1024.7
20260902000817 73 340 0.0 0.0 0.00 0.06 0.00 95 1024.7
20260902000644 73 342 0.0 0.0 0.00 0.06 0.00 95 1024.6
20260901235811 73 340 0.0 0.0 0.00 0.06 0.06 95 1024.6
20260901235308 73 342 0.0 0.0 0.00 0.06 0.06 95 1024.6
20260901234804 73 340 0.0 0.0 0.00 0.06 0.06 95 1024.6
20260901234303 73 340 0.0 0.0 0.00 0.06 0.06 95 1024.7
20260901233802 73 342 0.0 0.0 0.00 0.06 0.06 95 1024.7
20260901233303 73 340 0.0 0.0 0.00 0.06 0.06 95 1024.8
20260901232802 73 340 0.0 0.0 0.00 0.06 0.06 95 1024.7
20260901232644 73 342 0.0 2.0 0.00 0.06 0.06 95 1024.7
20260901231801 73 340 0.0 3.0 0.00 0.06 0.06 95 1024.7
20260901231256 73 340 2.0 3.0 0.00 0.06 0.06 94 1024.7
20260901230751 73 342 0.0 3.0 0.00 0.06 0.06 95 1024.8
20260901230246 73 342 2.0 3.0 0.00 0.06 0.06 95 1024.8
20260901225748 73 340 2.0 3.0 0.00 0.06 0.06 95 1024.9
20260901225246 73 342 2.0 3.0 0.00 0.06 0.06 95 1024.9
20260901224744 73 340 2.0 3.0 0.00 0.06 0.06 95 1024.9
20260901224242 73 342 2.0 3.0 0.00 0.06 0.06 95 1024.8
20260901223735 73 340 2.0 4.0 0.00 0.06 0.06 95 1024.8
20260901223235 73 340 3.0 5.0 0.00 0.06 0.06 95 1024.8
20260901222740 73 340 4.0 5.0 0.00 0.06 0.06 95 1024.9
20260901222235 73 340 4.0 5.0 0.00 0.06 0.06 95 1024.8
20260901221845 73 342 4.0 5.0 0.00 0.06 0.06 94 1024.8
20260901221059 73 342 4.0 4.0 0.00 0.06 0.06 94 1024.7
20260901220231 73 340 4.0 4.0 0.00 0.06 0.06 94 1024.7
20260901215733 73 351 4.0 4.0 0.00 0.06 0.06 94 1024.6
20260901215552 74 351 4.0 4.0 0.00 0.06 0.06 94 1024.5
20260901214730 74 89 3.0 3.0 0.00 0.06 0.06 94 1024.6
20260901214232 74 126 0.0 0.0 0.00 0.06 0.06 94 1024.4
20260901213733 74 126 0.0 0.0 0.00 0.06 0.06 93 1024.4
20260901213232 74 126 0.0 0.0 0.00 0.06 0.06 93 1024.3
20260901212728 74 126 0.0 0.0 0.00 0.06 0.06 93 1024.3
20260901212228 74 126 0.0 2.0 0.00 0.06 0.06 94 1024.2
20260901211725 75 126 1.0 2.0 0.00 0.06 0.06 93 1024.2
20260901211227 75 126 0.0 2.0 0.00 0.06 0.06 94 1024.1
20260901210725 74 126 1.0 3.0 0.00 0.06 0.06 93 1024.0
20260901210223 74 126 2.0 5.0 0.00 0.06 0.06 93 1024.0
20260901205723 74 126 3.0 5.0 0.00 0.06 0.06 93 1023.9
20260901205221 75 126 4.0 5.0 0.00 0.06 0.06 93 1023.9
20260901204722 75 126 4.0 5.0 0.00 0.06 0.06 93 1023.9
20260901204221 75 116 4.0 4.0 0.00 0.06 0.06 93 1023.7
20260901203713 75 117 3.0 5.0 0.00 0.06 0.06 94 1023.7
20260901203212 74 122 4.0 5.0 0.00 0.06 0.06 93 1023.7
20260901202710 75 122 3.0 6.0 0.00 0.06 0.06 93 1023.7
20260901202208 75 117 4.0 6.0 0.00 0.06 0.06 93 1023.7
20260901201705 75 117 4.0 6.0 0.00 0.06 0.06 93 1023.6
20260901201204 75 134 5.0 7.0 0.00 0.06 0.06 93 1023.6
20260901200704 75 132 5.0 7.0 0.00 0.06 0.06 93 1023.6
20260901200202 75 127 5.0 6.0 0.00 0.06 0.06 93 1023.5
20260901195700 75 134 4.0 6.0 0.00 0.06 0.06 93 1023.5
20260901195201 75 141 4.0 6.0 0.00 0.06 0.06 93 1023.6
20260901194656 75 130 4.0 5.0 0.00 0.06 0.06 93 1023.5
20260901194303 75 153 4.0 5.0 0.00 0.06 0.06 93 1023.4
20260901193154 75 172 3.0 4.0 0.00 0.06 0.06 93 1023.4
20260901192647 75 158 2.0 4.0 0.00 0.06 0.06 94 1023.5
20260901192148 75 158 2.0 5.0 0.00 0.06 0.06 93 1023.4
20260901191646 75 174 4.0 5.0 0.00 0.06 0.06 94 1023.5
20260901191144 75 172 4.0 5.0 0.00 0.06 0.06 93 1023.5
20260901190638 75 172 3.0 5.0 0.00 0.06 0.06 94 1023.4
20260901190139 75 171 2.0 6.0 0.00 0.06 0.06 94 1023.4
20260901185638 75 174 3.0 6.0 0.00 0.06 0.06 93 1023.4
20260901185134 75 172 4.0 6.0 0.00 0.06 0.06 94 1023.4
20260901184635 75 170 4.0 6.0 0.00 0.06 0.06 94 1023.4
20260901184449 75 165 4.0 6.0 0.00 0.06 0.06 94 1023.4
20260901183633 75 151 5.0 6.0 0.00 0.06 0.06 94 1023.4
20260901183129 75 158 4.0 5.0 0.00 0.06 0.06 94 1023.4
20260901182621 75 154 4.0 5.0 0.00 0.06 0.06 94 1023.5
20260901182119 75 157 3.0 5.0 0.00 0.06 0.06 94 1023.5
20260901181925 75 150 4.0 5.0 0.00 0.06 0.06 94 1023.6
20260901181120 75 155 4.0 5.0 0.00 0.06 0.06 94 1023.6
20260901180616 75 161 4.0 5.0 0.00 0.06 0.06 94 1023.6
20260901180118 75 153 4.0 7.0 0.00 0.06 0.06 94 1023.6
20260901175615 75 154 5.0 7.0 0.00 0.06 0.06 94 1023.6
20260901175116 75 158 4.0 6.0 0.00 0.06 0.06 94 1023.6
20260901174617 75 151 5.0 7.0 0.00 0.06 0.06 94 1023.5
20260901174116 75 189 4.0 7.0 0.00 0.06 0.06 94 1023.5
20260901173611 75 153 4.0 6.0 0.00 0.06 0.06 94 1023.4
20260901173107 75 151 4.0 7.0 0.00 0.06 0.06 94 1023.4
20260901172605 75 164 6.0 7.0 0.00 0.06 0.06 93 1023.4
20260901172104 75 150 5.0 7.0 0.00 0.06 0.06 93 1023.5
20260901171604 75 140 5.0 9.0 0.00 0.06 0.06 93 1023.6
20260901171105 75 133 6.0 10.0 0.00 0.06 0.06 93 1023.6
20260901170926 75 137 8.0 10.0 0.00 0.06 0.06 93 1023.5
20260901170118 75 136 6.0 10.0 0.00 0.06 0.06 93 1023.4
20260901165605 75 130 9.0 11.0 0.00 0.06 0.06 93 1023.4
20260901165059 75 127 8.0 11.0 0.00 0.06 0.06 93 1023.4
20260901164600 76 140 8.0 12.0 0.00 0.06 0.06 92 1023.5
20260901164054 76 134 8.0 12.0 0.00 0.06 0.06 90 1023.5
20260901163553 77 146 5.0 12.0 0.00 0.06 0.06 91 1023.5
20260901163052 76 106 8.0 12.0 0.00 0.06 0.06 91 1023.5
20260901162914 76 110 8.0 12.0 0.00 0.06 0.06 91 1023.5
20260901162045 77 134 9.0 11.0 0.00 0.06 0.06 90 1023.5
20260901161539 77 108 8.0 12.0 0.00 0.06 0.06 91 1023.5
20260901161346 76 122 9.0 12.0 0.00 0.06 0.06 91 1023.5
20260901160535 77 148 8.0 13.0 0.00 0.06 0.06 91 1023.6
20260901160346 76 113 9.0 13.0 0.00 0.06 0.06 91 1023.5
20260901155534 76 133 8.0 12.0 0.00 0.06 0.06 90 1023.6
20260901155033 77 133 9.0 12.0 0.00 0.06 0.06 89 1023.5
20260901154534 77 120 9.0 12.0 0.00 0.06 0.06 89 1023.5
20260901154033 77 124 7.0 13.0 0.00 0.06 0.06 90 1023.6
20260901153533 77 117 9.0 13.0 0.00 0.06 0.06 90 1023.5
20260901153033 77 132 9.0 11.0 0.00 0.06 0.06 90 1023.5
20260901152532 78 141 6.0 11.0 0.00 0.06 0.06 88 1023.5
20260901152034 78 129 8.0 14.0 0.00 0.06 0.06 89 1023.5
20260901151847 78 95 9.0 14.0 0.00 0.06 0.06 88 1023.5
20260901151034 78 113 7.0 11.0 0.00 0.06 0.06 89 1023.5
20260901150533 78 160 8.0 11.0 0.00 0.06 0.06 87 1023.6
20260901150031 78 160 5.0 13.0 0.00 0.06 0.06 86 1023.6
20260901145531 78 89 8.0 13.0 0.00 0.06 0.06 87 1023.6
20260901145027 78 88 7.0 13.0 0.00 0.06 0.06 88 1023.6
20260901144525 78 102 9.0 13.0 0.00 0.06 0.06 88 1023.5
20260901144025 78 141 8.0 13.0 0.00 0.06 0.06 87 1023.6
20260901143519 78 102 8.0 12.0 0.00 0.06 0.06 88 1023.6
20260901143019 77 88 8.0 14.0 0.00 0.06 0.06 88 1023.5
20260901142836 78 115 8.0 14.0 0.00 0.06 0.06 88 1023.6
20260901142458 78 86 9.0 13.0 0.00 0.06 0.06 88 1023.7